Temp
40 39 39 39 38 39 40 41 45 47 48 46 48 51 53 55 55 55 54 53 53 53
39 40 39 40 40 39 40 43 44 44 44 46 48 50 52 54 54 55 55 54 54 54
39 39 41 40 40 42 42 44 43 44 45 46 49 50 52 54 55 55 55 55 54 54
39 39 42 42 42 44 43 44 44 44 46 48 48 50 52 54 55 54 54 55 54 53
39 39 41 41 44 44 44 45 45 46 47 48 49 51 53 54 55 54 54 54 53 53
38 38 43 43 43 44 44 45 46 46 47 49 50 52 53 55 54 55 53 53 53 53
37 42 43 43 43 43 44 46 47 47 49 50 52 53 53 53 53 52 52 53 53 53
41 42 42 42 42 43 44 44 46 46 46 47 48 49 50 50 50 49 47 47 49 51
41 41 41 41 42 42 43 43 44 43 43 43 43 41 43 46 46 45 45 43 42 42
39 39 40 40 41 41 41 42 41 41 41 40 41 41 41 41 44 43 42 42 41 41
38 37 36 37 40 40 41 41 40 40 40 40 40 41 40 40 41 40 39 40 41 41
38 36 37 37 37 38 39 39 38 39 40 39 39 40 40 41 39 37 35 36 37 40
37 37 36 36 35 34 35 34 36 35 36 35 37 39 40 40 38 35 34 35 35 36
36 36 36 35 35 35 35 35 35 34 34 35 36 38 39 40 38 35 34 33 33 34
MSLP
1016.27 1016.23 1016.41 1016.30 1016.28 1016.10 1015.82 1015.54 1015.45 1015.19 1015.01 1014.75 1014.49 1014.32 1014.01 1013.84 1014.10 1014.46 1014.92 1015.48 1016.10 1016.74
1016.28 1016.50 1016.53 1016.49 1016.32 1015.90 1015.67 1015.26 1015.21 1015.04 1015.01 1014.83 1014.70 1014.54 1014.26 1014.03 1014.17 1014.44 1014.92 1015.58 1016.19 1016.79
1016.57 1016.40 1016.28 1016.27 1016.19 1015.64 1015.45 1015.28 1015.25 1015.10 1014.84 1014.61 1014.60 1014.54 1014.47 1014.18 1014.39 1014.70 1015.18 1015.78 1016.42 1017.02
1016.43 1016.29 1016.10 1015.86 1015.77 1015.50 1015.28 1015.04 1015.05 1015.02 1014.88 1014.67 1014.63 1014.35 1014.25 1014.17 1014.59 1014.91 1015.48 1016.06 1016.62 1017.16
1016.24 1016.16 1016.04 1015.90 1015.56 1015.37 1014.90 1014.86 1014.70 1014.82 1014.82 1014.74 1014.73 1014.52 1014.32 1014.19 1014.78 1015.13 1015.64 1016.07 1016.80 1017.34
1016.21 1015.99 1015.96 1015.85 1015.51 1015.11 1014.85 1014.79 1014.60 1014.74 1014.68 1014.63 1014.75 1014.65 1014.54 1014.61 1014.97 1015.41 1015.84 1016.38 1016.88 1017.38
1016.23 1015.84 1015.87 1015.87 1015.39 1015.13 1014.75 1014.67 1014.68 1014.68 1014.70 1014.63 1014.64 1014.75 1014.89 1015.07 1015.50 1015.90 1016.29 1016.75 1017.24 1017.58
1015.99 1016.05 1015.84 1015.72 1015.51 1015.23 1014.83 1014.83 1014.76 1014.81 1015.02 1015.10 1015.08 1015.01 1015.18 1015.54 1015.95 1016.37 1016.87 1017.27 1017.65 1018.04
1015.87 1016.09 1016.03 1015.80 1015.85 1015.40 1015.39 1015.35 1015.28 1015.41 1015.51 1015.77 1015.91 1015.83 1015.90 1016.10 1016.68 1017.04 1017.43 1017.99 1018.47 1018.78
1016.15 1015.96 1016.38 1016.03 1015.95 1016.08 1015.85 1015.75 1015.90 1016.13 1016.28 1016.52 1016.79 1016.60 1016.62 1016.87 1017.36 1017.88 1018.33 1018.60 1018.95 1019.47
1016.22 1016.33 1016.33 1016.69 1016.40 1016.29 1016.29 1016.30 1016.43 1016.71 1017.14 1017.26 1017.51 1017.20 1017.27 1017.57 1018.14 1018.62 1019.23 1019.46 1019.60 1019.98
1016.25 1016.72 1016.52 1016.72 1016.88 1016.93 1017.05 1017.23 1017.44 1017.51 1017.61 1017.74 1018.07 1018.02 1017.98 1018.20 1018.92 1019.60 1020.27 1020.54 1020.73 1020.88
1016.04 1016.72 1016.90 1016.89 1017.30 1017.53 1017.56 1017.79 1017.95 1018.15 1018.24 1018.45 1018.81 1019.03 1019.14 1019.13 1019.53 1020.22 1021.11 1021.69 1021.98 1022.22
1015.89 1016.60 1017.16 1017.11 1017.22 1017.75 1018.08 1018.26 1018.72 1019.02 1019.51 1019.46 1019.66 1019.97 1019.96 1020.04 1020.25 1020.94 1021.75 1022.49 1022.99 1023.20
Wind_Speed
1 1 1 2 2 2 2 3 3 4 3 5 4 3 3 1 5 6 7 10 7 6
1 2 3 5 3 3 2 3 4 5 4 3 3 2 0 3 4 7 9 9 8 7
1 3 3 4 4 5 4 3 3 4 4 4 3 3 1 2 5 8 6 7 8 7
1 3 5 5 4 4 3 4 3 3 3 3 3 2 2 3 7 9 9 8 8 7
1 3 5 5 5 3 4 3 3 2 2 2 2 3 2 7 8 7 9 9 8 7
1 4 4 4 4 4 3 2 2 3 4 4 4 2 1 5 8 6 6 7 6 5
1 4 3 3 4 2 0 3 3 3 4 3 2 2 4 5 6 6 5 6 6 6
3 2 3 3 2 2 4 5 5 6 5 5 5 3 6 6 6 6 6 6 5 3
4 1 1 2 2 3 5 5 6 7 7 8 5 8 10 8 7 6 6 7 7 7
3 1 3 0 3 4 5 5 7 7 7 8 6 12 14 13 8 8 7 7 8 8
3 2 4 2 4 4 4 6 6 7 6 8 7 14 17 16 11 10 10 8 9 10
5 4 4 5 4 4 6 6 6 6 8 9 8 12 15 14 11 12 11 9 9 9
6 5 6 6 5 3 5 5 6 8 8 8 9 12 12 11 8 12 9 9 10 14
6 6 4 5 6 6 8 9 8 9 7 8 7 10 14 12 8 8 8 7 7 6
Wind_Direction
193 193 287 277 293 305 302 308 321 321 338 350 354 2 4 360 153 163 138 134 131 120
281 354 311 295 288 276 268 287 318 320 319 337 333 317 270 79 121 131 142 135 127 128
48 321 295 284 276 277 282 278 292 305 320 330 320 293 220 147 130 136 125 131 130 135
76 304 284 269 273 270 272 277 271 275 291 301 315 321 296 72 139 127 129 148 134 123
128 292 290 277 283 284 281 270 277 274 256 255 225 214 299 148 152 132 127 120 121 139
264 289 282 302 296 273 250 239 232 200 205 191 183 154 129 104 125 154 128 128 128 129
246 282 316 302 281 257 98 92 123 183 164 161 159 130 146 126 117 116 121 126 127 144
265 311 312 289 316 51 57 68 70 77 59 54 58 65 95 103 109 112 97 81 100 129
283 1 359 283 94 56 86 85 83 69 69 57 39 51 80 97 91 82 92 95 82 79
291 353 95 265 81 92 73 75 79 74 76 73 68 85 91 87 87 85 81 91 96 87
179 170 95 85 97 75 78 82 87 84 89 89 75 91 94 91 89 81 66 64 81 96
149 166 125 94 85 81 103 91 81 90 94 92 73 83 98 101 94 82 69 56 55 79
142 153 137 124 93 57 74 90 85 73 63 67 77 66 77 95 103 94 86 64 60 61
138 135 124 115 125 118 106 92 82 79 54 63 65 64 66 68 92 102 96 83 75 71